Lid_Strength_Index
3 4 4 4 4 4 4 4 4 3 4 4 4 4 4 4 4 4 4 4 4 4 4 4 3 3 5 8 9 3 -3 -1 -0 2 5 7 9 10 10 9 10 8 7 6 6 6 6
3 3 3 3 4 4 4 3 3 4 4 4 3 3 3 4 4 4 4 4 4 4 4 4 3 3 7 11 5 3 0 1 2 3 5 6 8 8 8 8 10 8 7 7 6 6 6
3 4 3 3 4 4 4 4 4 4 4 4 3 3 4 4 4 4 4 4 4 4 3 4 3 4 7 10 5 5 1 2 2 4 6 5 7 7 8 8 7 9 10 7 7 6 7
3 3 3 3 4 4 4 4 4 4 4 4 4 4 4 4 4 4 4 5 4 2 3 4 2 4 10 4 5 5 5 3 2 4 7 5 6 8 9 8 9 10 10 12 8 7 7
4 4 4 4 4 4 4 4 4 4 4 4 4 4 4 4 4 5 5 5 4 3 2 2 5 7 9 2 4 5 4 3 4 6 6 5 7 10 9 11 13 13 14 12 10 7 8
4 4 4 4 4 4 4 4 4 4 4 4 4 4 4 4 5 5 5 5 4 2 3 2 3 8 7 8 6 5 4 3 5 6 7 8 10 12 12 13 16 15 13 12 11 8 8
4 4 4 4 4 4 4 4 4 4 4 4 4 5 5 5 5 6 7 10 12 13 11 13 12 7 8 7 7 6 4 5 6 7 10 8 11 13 12 11 11 10 11 11 9 8 10
4 4 4 4 4 4 4 4 4 4 4 4 5 5 5 5 6 6 8 12 13 11 14 10 10 11 9 10 11 9 6 6 8 10 8 9 11 9 8 8 9 10 11 11 9 7 8
4 4 4 4 4 4 4 4 4 4 4 5 5 5 5 5 5 8 10 10 9 12 16 12 11 11 11 11 11 10 8 8 8 11 10 10 9 6 8 8 9 10 11 11 11 9 9
4 4 4 4 4 4 4 4 4 4 4 4 4 4 4 3 7 7 7 6 6 9 16 12 11 9 9 10 12 7 8 8 8 10 11 10 7 8 8 9 8 11 9 10 10 11 14
4 4 4 4 4 4 4 4 3 3 3 3 3 3 2 2 6 6 5 5 4 8 18 9 10 7 9 11 10 9 7 9 10 9 11 11 9 9 9 9 7 10 7 10 10 12 13
4 4 4 4 4 4 3 3 2 2 2 2 2 2 2 4 6 5 5 4 8 13 16 10 9 10 11 11 11 9 9 9 8 9 9 10 8 7 8 7 7 7 9 11 12 14 16
4 4 4 4 4 3 2 2 2 1 2 2 3 3 3 3 8 6 5 9 14 17 10 12 12 11 12 13 12 10 11 13 13 15 14 11 10 8 7 9 8 8 12 15 17 17 17
4 4 4 3 2 2 1 1 1 1 2 2 3 4 4 3 5 5 8 12 17 11 13 10 11 11 13 11 14 12 12 13 10 11 14 14 14 10 8 8 10 10 10 14 18 18 15
4 4 3 2 2 1 1 1 1 1 2 2 4 6 6 4 3 6 11 16 15 13 11 11 12 14 14 11 11 13 13 13 11 11 15 16 14 8 8 7 7 11 12 10 15 16 17
4 4 2 1 1 1 1 1 1 1 2 3 7 8 7 3 3 8 13 14 13 9 10 11 14 12 15 14 13 13 15 12 11 9 9 13 17 11 10 8 7 8 10 14 16 17 18
4 3 2 1 1 1 1 1 1 2 3 3 9 10 6 4 6 10 15 14 10 8 9 11 12 13 13 13 13 14 13 11 10 10 9 12 15 13 11 12 12 10 11 13 13 15 16
4 2 1 1 1 1 1 1 2 3 3 5 10 13 6 4 11 12 14 11 8 9 8 9 9 11 12 12 13 13 13 10 8 9 12 10 13 16 14 11 10 9 11 12 13 16 16
3 1 1 1 1 1 1 1 2 3 3 5 11 11 7 7 14 15 12 11 8 9 8 9 9 9 10 12 14 12 10 7 6 10 12 11 13 17 15 14 12 13 12 13 14 14 15
1 1 1 1 1 1 1 2 2 3 3 8 11 14 11 10 12 14 13 12 11 7 8 7 8 8 10 12 11 12 10 8 6 8 8 9 13 15 18 17 14 14 13 11 13 14 14
2 2 1 1 1 1 1 2 2 3 3 8 12 14 12 15 13 13 12 12 11 11 8 7 8 9 10 13 12 12 10 9 7 7 10 11 16 15 15 15 14 13 13 10 12 12 13
1 1 1 1 1 1 1 1 2 2 3 9 12 11 12 11 11 12 12 13 11 9 8 9 10 9 9 12 11 12 10 11 10 9 11 12 16 16 17 14 13 12 10 10 10 11 11
1 1 1 1 1 1 1 1 2 2 4 9 9 9 9 11 12 12 14 11 10 8 7 7 8 9 10 9 7 7 7 7 8 11 13 14 16 17 18 13 12 14 12 11 10 10 11
1 1 1 1 1 1 1 1 1 2 3 5 8 8 11 14 12 12 11 10 9 9 10 7 7 9 7 4 5 7 9 8 7 12 10 13 15 17 18 14 18 12 10 10 11 10 9
1 1 1 2 1 1 1 1 1 1 3 5 5 8 11 14 12 11 10 9 8 8 8 7 7 5 4 6 11 12 12 11 10 11 11 11 14 18 19 16 13 12 11 12 12 12 9
1 1 2 2 1 1 1 1 1 2 2 4 5 6 9 12 12 9 10 9 10 9 9 7 5 5 6 10 12 15 17 15 15 12 10 12 13 16 17 17 19 14 11 9 8 15 9
2 2 2 2 2 1 2 2 2 2 2 4 5 5 8 11 10 10 11 10 8 8 9 8 7 8 6 11 14 15 16 12 16 16 14 14 15 17 16 16 14 12 11 10 15 13 9
2 2 2 2 1 2 2 2 2 2 2 4 5 5 7 10 9 8 7 9 8 8 10 8 10 8 9 12 13 13 14 13 14 12 13 14 15 16 16 17 19 11 12 14 13 12 11
2 2 2 2 2 2 2 2 2 2 2 3 6 4 4 8 8 6 6 5 6 6 7 7 8 9 8 11 11 11 13 12 12 16 10 15 13 15 16 15 13 12 12 10 10 12 12